This is the latest recevied weather packets stored in our database for station/object DC0VZ-6. If no packets are shown the sender has not sent any weather packets the latest 10 day(s).
| Time | Temp. | Humidity | Pressure | Rain* | Wind** | Luminosity | Snow |
|---|---|---|---|---|---|---|---|
| 1777675571 | 7.78° C | 8% | 990.9 hPa | 0 mm | - | - | - |
| 1777674386 | 8.33° C | 8% | 990.9 hPa | 0 mm | - | - | - |
| 1777673771 | 8.33° C | 8% | 991.1 hPa | 0 mm | - | - | - |
| 1777673170 | 8.89° C | 8% | 991.1 hPa | 0 mm | - | - | - |
| 1777672571 | 8.89° C | 8% | 991.1 hPa | 0 mm | - | - | - |
| 1777671971 | 9.44° C | 7% | 991.1 hPa | 0 mm | - | - | - |
| 1777671371 | 9.44° C | 7% | 991.1 hPa | 0 mm | - | - | - |
| 1777670770 | 10° C | 5% | 991.1 hPa | 0 mm | - | - | - |
| 1777670170 | 10° C | 5% | 991.3 hPa | 0 mm | - | - | - |
| 1777669571 | 10° C | 5% | 991.3 hPa | 0 mm | - | - | - |
| 1777668970 | 10.56° C | 5% | 991.2 hPa | 0 mm | - | - | - |
| 1777668370 | 10.56° C | 5% | 991.2 hPa | 0 mm | - | - | - |
| 1777667770 | 11.11° C | 5% | 991.3 hPa | 0 mm | - | - | - |
| 1777667170 | 11.67° C | 5% | 991.3 hPa | 0 mm | - | - | - |
| 1777666569 | 11.67° C | 5% | 990.9 hPa | 0 mm | - | - | - |
| 1777665969 | 12.22° C | 5% | 990.9 hPa | 0 mm | - | - | - |
| 1777665369 | 12.78° C | 5% | 991 hPa | 0 mm | - | - | - |
| 1777664769 | 13.33° C | 5% | 991 hPa | 0 mm | - | - | - |
| 1777664169 | 14.44° C | 5% | 990.9 hPa | 0 mm | - | - | - |
| 1777663574 | 15.56° C | 5% | 990.9 hPa | 0 mm | - | - | - |
| 1777662974 | 16.11° C | 5% | 990.7 hPa | 0 mm | - | - | - |
| 1777662374 | 16.67° C | 5% | 990.7 hPa | 0 mm | - | - | - |
| 1777661774 | 17.78° C | 5% | 990.8 hPa | 0 mm | - | - | - |
| 1777661174 | 19.44° C | 5% | 990.8 hPa | 0 mm | - | - | - |
| 1777660574 | 20° C | 5% | 990.8 hPa | 0 mm | - | - | - |
* Rain latest hour (hover to see other rain measurements)
** Current wind speed in m/s (hover to see current wind gust speed)